Austrian Airlines - Betriebsrat Bord

  • Increase font size
  • Default font size
  • Decrease font size
Austrian Airlines - Betriebsrat Bord

Passwort vergessen? Wie (re)aktiviere ich meinen Account?

Jeder Mitarbeiter des fliegenden OS-Personals hat Mitte Juni 2009 ein automatisches E-Mail an seine Firmen-Adresse mit den Zugangsdaten (User und Passwort)  zu on-board.at erhalten. Als User wurde vorname.nachname (der erste Teil Eurer Firmen-Adresse ohne@austrian.com) vergeben, das Passwort ist eine per Zufallsgenerator erstellte Zahlen-/Buchstabenkombination. Jeder Berechtigte hat somit bereits einen aktiven Account.

Sollten Euch Eure Zugangsdaten abhanden gekommen sein oder Ihr Probleme haben, Euch einzuloggen, dann könnt Ihr den Account wie folgt reaktivieren: (bitte auf READ MORE klicken):

Read more...
 

METAR and TAF

LOWW 272250Z 34005KT 9999 FEW038 FEW040CB BKN120 21/18 Q1015 TEMPO SHRA=

LOWW 271715Z 2718/2824 22006KT 9999 FEW035 FEW040CB SCT130 TX26/2812Z TN19/2824Z TEMPO 2719/2722 26010G20KT 6000 TSRA SCT035 FEW040CB BECMG 2720/2722 28007KT SCT040 TEMPO 2722/2810 SHRA BKN030 FEW040CB PROB30 TEMPO 2722/2806 29010G20KT 6000 TSRA FM281000 32010G20KT 9999 FEW040 BKN100 FM281800 34007KT CAVOK=